OPTUS D3

Last updated on Tue Oct 15 2024 00:02:38 GMT+0000 (Coordinated Universal Time)

1 35756U 09044B 24288.54979696 -.00000149 00000+0 00000+0 0 9995 2 35756 0.3115 84.1444 0002499 124.7947 168.5759 1.00272680 55435
UTC large
Height (km)
Speed (km/s)
/
Latitude / Longitude
Inclination (degrees)
Orbital Period (minutes)
Azimuth
Elevation
Range (km)
Doppler Factor

Next 0 passes for location: London (51.5072 / 0.1276)

Sorry there are no passes over London.